{"data":{"norad_id":66438,"intl_designator":"2025-259S","name":"STARLINK-34681","alt_names":[],"object_type":"PAYLOAD","status":"ACTIVE","operator":null,"country":"US","launch_date":"2025-11-11","launch_site_code":"AFETR","launch_vehicle":null,"mission":null,"orbit_class":"UNKNOWN","rcs_meters":null,"size_class":null,"mass_kg":null,"dimensions":null,"purposes":["comms"],"wikipedia_slug":null,"has_3d_model":false,"image_url":null,"decayed_at":null,"tle_current":{"epoch":"2026-09-20T16:37:02.703360Z","epoch_age_seconds":76812,"freshness":"FRESH","line1":"1 66438U 25259S   26263.69239240  .00008898  00000+0  33250-3 0  9992","line2":"2 66438  43.0015 253.1396 0001427 267.6856  92.3832 15.27578985 49204","mean_motion":15.27578985,"eccentricity":0.0001427,"inclination_deg":43.0015,"raan_deg":253.1396,"arg_perigee_deg":267.6856,"mean_anomaly_deg":92.3832,"bstar":0.0003325,"rev_number":4920,"period_min":94.266811349202,"perigee_km":482.07304362687,"apogee_km":484.03122700609,"semimajor_km":6861.1891353165,"source":"CELESTRAK","updated_at":"2026-09-21T09:00:35.909429Z"}}}